User: anonymous
Location: Prairie State College
(41.5244°N, 87.6382°W)
Time: 01:22:30
(UTC-05:00)
Language:

ARGOS Delta rocket - Orbit

View from above orbital plane
View from above orbital plane
View from above satellite
View from above satellite

Ground track
Ground track

The orbit data is extracted from the following two-line orbital elements,

1 25637U 99008D   14293.80079284  .00000885  00000-0  22537-3 0  6187
2 25637 096.4859 046.1857 0145217 127.3235 347.2474 14.46008127825346
Epoch (UTC): 20 October 2014 19:13:08
Eccentricity: 0.0145217
inclination: 96.4859°
perigee height: 635 km
apogee height: 842 km
right ascension of ascending node: 46.1857°
argument of perigee: 127.3235°
revolutions per day: 14.46008127
mean anomaly at epoch: 347.2474°
orbit number at epoch: 82534

The dashed part of the orbit path shows where the satellite is in the earth's shadow,  

DLR